Simultaneous Nadir Overpasses (SNOs) Predictions

Prediction of SNOs between LANDSAT-8 and METOP-B Satellite Orbit:

Table of predicted SNOs for the next 14.0 days since TLE Epoch: 10/12/2024
Index Date (LANDSAT-8) Time (LANDSAT-8) Lat,Lon (LANDSAT-8) SZA (LANDSAT-8 ) Date (METOP-B) Time (METOP-B) Lat,Lon (METOP-B) SZA (METOP-B ) Distance(km) Time Diff (sec)
1 10/14/2024 13:42:03 81.39, 19.18 92.65 10/14/2024 13:41:22 81.40, 19.16 92.64 0.75 41
2 10/14/2024 14:31:29 -81.41,-172.85 87.29 10/14/2024 14:32:01 -81.41,-172.83 87.28 0.35 32
3 10/17/2024 09:16:17 81.39, 85.62 93.70 10/17/2024 09:15:34 81.40, 85.47 93.66 2.56 43
4 10/17/2024 10:05:43 -81.41,-106.39 86.24 10/17/2024 10:06:13 -81.41,-106.50 86.25 1.90 30
5 10/20/2024 04:50:29 81.40, 152.27 94.75 10/20/2024 04:49:45 81.40, 152.22 94.72 0.79 44
6 10/20/2024 05:39:56 -81.40, -40.11 85.25 10/20/2024 05:40:25 -81.41, -40.12 85.23 0.45 29
7 10/23/2024 00:24:39 81.40,-141.27 95.75 10/23/2024 00:23:56 81.40,-141.38 95.72 1.84 43
8 10/23/2024 01:14:06 -81.40, 26.37 84.24 10/23/2024 01:14:36 -81.41, 26.30 84.23 1.07 30
9 10/25/2024 19:58:45 81.41, -74.61 96.75 10/25/2024 19:58:04 81.41, -74.55 96.74 1.25 41



Historial Predications of SNOs between LANDSAT-8 and METOP-B
